Flag for India Weather past 2 weeks in Amravati, Maharashtra, India

Now
79 °F

Broken clouds.


Feels Like: 83 °F
Forecast: 77 / 91 °F
Wind: 6 mph from West

Location: Nagpur Sonegaon

Current Time: Aug 28, 2014 at 10:38:51 AM

Latest Report: Aug 28, 2014 at 9:40 AM


Visibility: 4 mi

Pressure: 29.74 "Hg

Humidity: 94%

Dew point: 77 °F

Location of AmravatiLocation

Historic Weather in Amravati — Graph

°F

Amravati temperature yesterday

Maximum temperature yesterday: 91 °F (at 2:40 PM)
Minimum temperature yesterday: 75 °F (at 4:10 AM)
Average temperature yesterday: 84 °F

Past Weeks' High & Low Weather Summary

 TemperatureHumidityPressure
High99 °F (Aug 19, 1:40 PM)100% (Aug 21, 4:10 PM)31.81 "Hg (Aug 21, 4:10 PM)
Low72 °F (Aug 23, 12:10 AM)38% (Aug 21, 10:40 AM)29.59 "Hg (Aug 27, 3:40 PM)
Average83 °F80%29.76 "Hg
* Reported Aug 13 8:40 AM — Aug 28 9:10 AM, Amravati, Weather by CustomWeather, © 2014

Note: Actual official high and low records may vary slightly from our data, if they occured in-between our weather recording intervals... More about our weather records

Advertising

Amravati weather history for previous 24 hours

 ConditionsComfort  
Time TempWeatherWind HumidityBarometerVisibility
9:10 AM
Aug 28
77 °FBroken clouds.6 mph94%29.71 "Hg3 mi
8:10 AM75 °FBroken clouds.5 mph94%29.74 "Hg2 mi
7:40 AM73 °FMore clouds than sun.5 mph100%29.74 "Hg2 mi
7:10 AM73 °FMore clouds than sun.7 mph94%29.71 "Hg2 mi
6:40 AM73 °FMore clouds than sun.7 mph94%29.71 "Hg2 mi
5:10 AM73 °FLight rain. Mostly cloudy.3 mph100%29.68 "Hg2 mi
3:10 AM73 °FPartly cloudy.3 mph94%29.68 "Hg3 mi
2:10 AM77 °FPartly cloudy.3 mph94%29.68 "Hg3 mi
1:40 AM77 °FPartly cloudy.No wind89%29.68 "Hg3 mi
11:10 PM
Aug 27
79 °FPassing clouds.3 mph89%29.71 "Hg2 mi
10:40 PM81 °FPassing clouds.5 mph79%29.71 "Hg2 mi
9:10 PM81 °FPassing clouds.5 mph79%29.71 "Hg2 mi
8:10 PM81 °FHaze.3 mph74%29.65 "Hg2 mi
7:40 PM81 °FHaze.3 mph74%29.65 "Hg2 mi
7:10 PM82 °FHaze.3 mph74%29.65 "Hg2 mi
6:40 PM84 °FPartly sunny.2 mph70%29.62 "Hg2 mi
6:10 PM84 °FPartly sunny.3 mph66%29.59 "Hg2 mi
5:40 PM84 °FPartly sunny.2 mph66%29.59 "Hg2 mi
5:10 PM90 °FHaze.5 mph59%29.59 "Hg2 mi
4:40 PM90 °FPartly sunny.2 mph59%29.59 "Hg2 mi
4:10 PM88 °FPartly sunny.5 mph62%29.59 "Hg2 mi
3:40 PM88 °FBroken clouds.5 mph62%29.59 "Hg2 mi
3:10 PM91 °FPartly sunny.7 mph63%29.62 "Hg2 mi
2:40 PM91 °FPartly sunny.5 mph67%29.65 "Hg2 mi
2:10 PM90 °FPartly sunny.3 mph71%29.65 "Hg2 mi
1:40 PM90 °FPartly sunny.3 mph71%29.68 "Hg2 mi
1:10 PM90 °FPartly sunny.3 mph71%29.68 "Hg3 mi
12:40 PM90 °FPartly sunny.3 mph71%29.71 "Hg3 mi
12:10 PM90 °FPartly sunny.3 mph67%29.71 "Hg3 mi
11:40 AM86 °FPartly sunny.5 mph75%29.74 "Hg3 mi
11:10 AM86 °FHaze.3 mph79%29.74 "Hg3 mi
10:40 AM86 °FScattered clouds.2 mph79%29.74 "Hg3 mi
10:10 AM86 °FScattered clouds.3 mph79%29.74 "Hg3 mi
Weather by CustomWeather, © 2014

See weather overviewHow to use our weather pages